Regional Weather Roundup
Issued by NWS Midland/Odessa, TX

Skip options and go directly to product.
Home | Oldest Version | Previous Version | Current Version | All | Text Only | Save Text | Print | Product List | Glossary On

Skip product version selection by date and time.   
018
ASUS44 KMAF 190410
RWRMAF
MIDLAND AREA WEATHER ROUNDUP
NATIONAL WEATHER SERVICE MIDLAND TX
1100 PM CDT FRI APR 18 2014

...IN SOUTHWEST TEXAS AND SOUTHEAST NEW MEXICO...

CITY           SKY/WX    TMP DP  RH WIND       PRES   REMARKS
ALPINE         MOCLDY    61  49  64 CALM      30.17R
ANDREWS        FAIR      61  43  50 SE8       30.10S
ARTESIA        CLOUDY    66  45  45 SE18      30.06R
BIG SPRING     CLEAR     64  43  47 E8        30.12S
CARLSBAD       CLOUDY    69  44  40 SE9       30.05R
DRYDEN           N/A     63  50  62 E12       30.07S
FORT STOCKTON  MOCLDY    65  48  54 SE16G28   30.08S
GUAD PASS      CLOUDY    60  44  55 NE31      30.12R
HOBBS          MOCLDY    59  41  51 SE10      30.11R
MARFA          PTCLDY    59  48  67 CALM      30.14S
MIDLAND AIRPK  CLEAR     66  44  45 SE10      30.10S
MIDLAND INTL   CLEAR     64  44  48 SE9       30.09S
ODESSA         CLEAR     67  46  47 S13       30.10R
PECOS          CLOUDY    68  47  47 E20G25    30.03S
PRESIDIO       FAIR      72  51  48 NE16G24   30.00R
SEMINOLE       CLEAR     60  44  54 SE9       30.11S
SNYDER         PTCLDY    61  43  52 E7        30.12S
WINK           MOCLDY    69  46  43 SE17G24   30.05R
$$
...OTHER STATIONS IN TEXAS...

CITY           SKY/WX    TMP DP  RH WIND       PRES   REMARKS
ABILENE        MOCLDY    62  47  57 SE12      30.11F
AMARILLO       MOCLDY    61  43  51 S20       30.09R
AUSTIN         MOCLDY    58  54  86 CALM      30.15R
BROWNSVILLE    CLEAR     64  61  90 E3        30.14R
CORPUS CHRISTI MOCLDY    63  58  83 S6        30.13R
DALLAS FTW     MOCLDY    63  47  55 CALM      30.15R
DEL RIO        CLEAR     73  51  46 SE10      30.06S
EL PASO        CLOUDY    74  36  25 E8        30.01R
HOUSTON INT    PTCLDY    64  54  69 NE8       30.13R
LUBBOCK        MOCLDY    60  42  51 SE10      30.12R
SAN ANGELO     CLEAR     65  44  46 E9        30.09R
SAN ANTONIO    PTCLDY    65  56  72 E6        30.14R
WACO           PTCLDY    60  52  74 E3        30.14R
WICHITA FALLS  NOT AVBL
$$
...OTHER LOCATIONS IN NEW MEXICO...

CITY           SKY/WX    TMP DP  RH WIND       PRES   REMARKS
ALAMAGORDO     CLOUDY    64  48  55 E10       30.08S
ALBUQUERQUE    CLOUDY    67  29  24 SW9       30.10R
CANNON AFB     NOT AVBL
CLOVIS         MOCLDY    55  43  62 S9        30.13F
HOLLOMAN AFB   CLOUDY    64  51  62 E13       30.04F
ROSWELL        CLOUDY    64  43  46 SE9       30.05R
RUIDOSO        CLOUDY    55  37  50 W17G23    30.23R
SANTA FE       CLOUDY    64  23  21 S12       30.10R
TRUTH OR CONSE CLOUDY    66  29  24 NE6       30.06R
TUCUMCARI      CLOUDY    64  43  46 S20G33    30.03R
$$

USA.gov is the U.S. government's official web portal to all federal, state and local government web resources and services.